Location: Aressy
(43.2833°N, 0.3167°W)
Time: 21:52:51
(UTC+00:00)

SL-08 RB Rocket - Pass Details

Date: 28 January 2021
Orbit: 647 x 683 km, 97.8° (Epoch: 03 March)

Event Time Altitude Azimuth Distance (km) Brightness Sun altitude
Exits shadow 18:59:18 46° 107° (ESE) 877 3.9 -20.3°
Maximum altitude 19:00:02 52° 73° (ENE) 814 3.7 -20.4°
Drops below altitude 10° 19:04:24 10° 357° (N) 2,062 6.2 -21.2°
Sets 19:06:39 0° 353° (N) 2,974 7.1 -21.6°
